[[{"header":{"parameterUnit":"m.s-1","parameterCategory":1,"la1":30.2991,"la2":30.254,"lo1":-89.0895,"lo2":-89.0444,"dy":0.0017,"dx":0.0017,"nx":28,"ny":28,"refTime":"2024-08-23T09:00:00:Z","depth":0,"parameterNumber":2,"parameterNumberName":"U-component_of_WINDS"},"data":[0,0,0,0,0,0,0,0,0,0,0,0,0,0,0,0,0,0,0,0,0,0,0,0,0,0,0,0,0,0,0,0,0,0,0,0,0,0,0,0,0,0,0,0,0,0,0,0,0,0,0,0,0,0,0,0,0,0,-6.0093,-6.0094,0,-6.0189,-6.019,-6.0191,-6.009,-6.0087,-6.0083,-6.0079,-6.0183,-6.0189,-6.0195,0,0,0,0,0,0,0,0,0,0,0,0,0,-5.9828,-5.9834,-6.0093,-6.0094,-6.0095,-6.0189,-6.019,-6.0191,-6.0091,-6.0086,-6.0082,-6.0077,-6.018,-6.0188,-6.0196,0,0,0,0,0,0,0,0,0,0,0,0,0,-5.9936,-5.9836,-6.0093,-6.0056,-6.0054,-6.0188,-6.019,-6.0192,-6.0092,-6.0086,-6.008,-6.0075,-6.0178,-6.0187,-6.0197,-6.0373,0,0,-6.0226,-6.023,0,0,0,0,0,0,0,0,-5.993,-5.9946,-6.0061,-6.0059,-6.0057,-6.0122,-6.0135,-6.0253,-6.0094,-6.0078,-6.0079,-6.0072,-6.0167,-6.0177,-6.0208,-6.0378,-6.0382,-6.0227,-6.0233,-6.0237,-6.024,0,0,0,0,0,0,0,-5.9923,-5.9941,-6.0131,-6.0062,-6.006,-6.0037,-6.0046,-6.0157,-6.0155,-6.0079,-6.0072,-6.0084,-6.0165,-6.0199,-6.021,-6.0384,-6.0227,-6.0235,-6.0241,-6.0245,-6.0705,-6.0712,0,0,0,0,0,0,-5.9919,-5.9936,-6.0128,-6.0134,-5.9978,-6.0047,-6.0056,-6.0107,-6.0153,-6.0154,-6.0089,-6.0079,-6.0186,-6.0199,-6.0213,-6.0425,-6.0237,-6.0246,-6.0251,-6.0699,-6.0707,-6.0714,0,0,0,0,0,0,-5.9913,-5.9937,-6.0124,-6.0033,-6.0055,-6.0057,-6.0115,-6.0112,-6.0146,-6.0161,-6.016,-6.0124,-6.0182,-6.02,-6.0334,-6.0427,-6.025,-6.0259,-6.0691,-6.0701,-6.071,-6.0848,0,0,0,0,0,0,-5.9906,-5.9935,-6.0001,-6.0035,-6.006,-6.0242,-6.012,-6.0118,-6.0162,-6.015,-6.0193,-6.0195,-6.0179,-6.0321,-6.0344,-6.0437,-6.0266,-6.0683,-6.0696,-6.0707,-6.0835,-6.0861,-6.0883,0,0,0,0,0,-5.9897,-6.0037,-6.0005,-6.0029,-6.0142,-6.0248,-6.0262,-6.0239,-6.017,-6.0237,-6.0247,-6.0194,-6.0412,-6.0335,-6.036,-6.0458,-6.0677,-6.0692,-6.0706,-6.0824,-6.0856,-6.0882,0,0,0,0,0,0,-6.0015,-6.004,-6.0006,-6.016,-6.0202,-6.023,-6.0314,-6.0273,-6.0337,-6.0323,-6.0293,-6.0304,-6.0447,-6.0465,-6.0379,-6.0632,-6.0534,-6.0554,-6.0615,-6.0645,-6.0669,-6.0662,-6.0274,0,0,0,0,0,-6.0059,-6.0141,-6.0159,-6.0294,-6.0316,-6.0312,-6.0357,-6.0335,-6.0379,-6.0397,-6.0416,-6.0462,-6.0541,-6.0593,-6.0667,-6.0837,-6.0846,-6.0916,-6.094,-6.096,-6.0979,-6.1072,-6.1104,-6.0762,-6.0762,-6.0761,0,0,-6.0151,-6.0175,-6.0228,-6.0318,-6.0348,-6.0436,-6.0328,-6.0424,-6.049,-6.0412,-6.054,-6.0556,-6.0605,-6.0758,-6.0827,-6.0778,-6.1075,-6.0979,-6.0994,-6.1002,-6.109,-6.1123,-6.1152,-6.0772,-6.077,-6.0768,0,0,-6.0363,-6.0388,-6.0504,-6.0536,-6.0583,-6.0579,-6.0607,-6.0642,-6.0649,-6.0777,-6.0721,-6.0799,-6.0935,-6.0973,-6.101,-6.1237,-6.1192,-6.1262,-6.1389,-6.148,-6.1507,-6.1531,-6.1615,-6.1645,-6.128,-6.1281,-6.1281,0,-6.0472,-6.06,-6.0569,-6.067,-6.0713,-6.0644,-6.0763,-6.0796,-6.0865,-6.0897,-6.0841,-6.1011,-6.1039,-6.1201,-6.1257,-6.1289,-6.1322,-6.1258,-6.1505,-6.1529,-6.1551,-6.163,-6.1662,-6.1289,-6.1288,-6.1287,-6.1286,0,-6.0732,-6.0822,-6.091,-6.0977,-6.1029,-6.1138,-6.1127,-6.1183,-6.1157,-6.116,-6.1292,-6.1323,-6.1403,-6.1439,-6.1415,-6.1599,-6.1568,-6.1509,-6.1411,-6.1593,-6.1667,-6.1697,-6.1301,-6.1298,-6.1296,-6.1293,0,0,-6.1023,-6.1071,-6.1105,-6.1135,-6.1181,-6.1251,-6.1358,-6.1434,-6.1484,-6.1534,-6.1625,-6.1742,-6.1689,-6.1731,-6.1711,-6.1791,-6.1972,-6.1723,-6.1723,-6.177,-6.218,-6.2225,-6.226,-6.1941,-6.1947,-6.1951,-6.2176,0,-6.1238,-6.1422,-6.1398,-6.1575,-6.1659,-6.1596,-6.1689,-6.1729,-6.1735,-6.1808,-6.1815,-6.1899,-6.1821,-6.1846,-6.1922,-6.1934,-6.2054,-6.1917,-6.2028,-6.2033,-6.202,-6.2299,-6.2347,-6.2557,-6.2205,-6.221,-6.2213,0,-6.1514,-6.1572,-6.1758,-6.1792,-6.1827,-6.1911,-6.198,-6.2049,-6.2094,-6.2093,-6.2141,-6.2107,-6.2216,-6.2114,-6.2266,-6.2174,-6.2218,-6.2231,-6.2238,-6.2249,-6.2135,-6.232,-6.2623,-6.2656,-6.2258,-6.2254,-6.2251,0,-6.171,-6.1835,-6.1963,-6.199,-6.2033,-6.2095,-6.2116,-6.2154,-6.2202,-6.2263,-6.2294,-6.2367,-6.2408,-6.2466,-6.2454,-6.238,-6.2611,-6.2507,-6.2615,-6.2616,-6.2668,-6.2666,-6.2986,-6.2693,-6.2693,-6.2692,-6.2692,0,-6.1954,-6.2071,-6.2052,-6.213,-6.226,-6.2232,-6.2361,-6.2375,-6.241,-6.2492,-6.2441,-6.252,-6.2497,-6.2576,-6.2567,-6.2696,-6.2714,-6.2718,-6.2715,-6.2724,-6.2724,-6.2754,-6.274,-6.2701,-6.2699,-6.2697,-6.2696,0,-6.2196,-6.2187,-6.2323,-6.2352,-6.2362,-6.2456,-6.2482,-6.2558,-6.2559,-6.2663,-6.2686,-6.269,-6.2779,-6.2772,-6.2873,-6.2867,-6.3028,-6.3006,-6.3012,-6.3008,-6.3118,-6.3109,-6.3471,-6.3518,-6.3193,-6.3196,-6.3198,0,-6.2353,-6.2441,-6.248,-6.253,-6.2555,-6.2637,-6.2685,-6.2661,-6.2714,-6.2772,-6.2841,-6.2925,-6.2992,-6.3139,-6.3152,-6.3229,-6.3211,-6.3332,-6.3222,-6.3229,-6.3215,-6.3211,-6.3221,-6.3354,-6.3358,-6.3361,-6.3363,0,-6.2634,-6.2626,-6.2696,-6.2766,-6.2824,-6.2878,-6.2927,-6.2972,-6.2954,-6.3016,-6.3106,-6.3157,-6.326,-6.3346,-6.342,-6.3444,-6.3403,-6.3397,-6.3427,-6.3439,-6.344,-6.3443,-6.3074,-6.339,-6.3387,-6.3385,-6.3384,-6.3383,-6.284,-6.2916,-6.2955,-6.3036,-6.307,-6.3117,-6.319,-6.3199,-6.3273,-6.3354,-6.3336,-6.3438,-6.3482,-6.3577,-6.3608,-6.369,-6.3646,-6.3689,-6.37,-6.3711,-6.3725,-6.3425,-6.3703,-6.3702,-6.3701,-6.3701,-6.37,0,-6.3121,-6.3143,-6.3217,-6.3286,-6.3351,-6.3302,-6.3355,-6.3412,-6.3502,-6.3546,-6.3612,-6.3717,-6.3799,-6.3819,-6.3899,-6.3961,-6.3944,-6.3983,-6.3979,-6.3986,-6.3758,-6.3725,-6.3995,-6.3995,-6.3995,-6.3995,-6.3995,-6.3995,-6.3275,-6.3401,-6.3397,-6.3541,-6.3562,-6.366,-6.3695,-6.3739,-6.3773,-6.3892,-6.396,-6.3971,-6.4006,-6.4088,-6.4163,-6.4167,-6.42,-6.4247,-6.4244,-6.4031,-6.4002,-6.3974,-6.3943,-6.4254,-6.4254,-6.4465,-6.4467,-6.4469]},{"header":{"parameterUnit":"m.s-1","parameterCategory":1,"la1":30.2991,"la2":30.254,"lo1":-89.0895,"lo2":-89.0444,"dy":0.0017,"dx":0.0017,"nx":28,"ny":28,"refTime":"2024-08-23T09:00:00:Z","depth":0,"parameterNumber":3,"parameterNumberName":"V-component_of_WINDS"},"data":[0,0,0,0,0,0,0,0,0,0,0,0,0,0,0,0,0,0,0,0,0,0,0,0,0,0,0,0,0,0,0,0,0,0,0,0,0,0,0,0,0,0,0,0,0,0,0,0,0,0,0,0,0,0,0,0,0,0,-0.7073,-0.7072,0,-0.7001,-0.7,-0.6999,-0.694,-0.694,-0.6939,-0.6939,-0.6863,-0.6862,-0.686,0,0,0,0,0,0,0,0,0,0,0,0,0,-0.7157,-0.7156,-0.7073,-0.7072,-0.7071,-0.7001,-0.7,-0.6999,-0.694,-0.694,-0.6939,-0.6938,-0.6864,-0.6862,-0.686,0,0,0,0,0,0,0,0,0,0,0,0,0,-0.7106,-0.7155,-0.7073,-0.7033,-0.7029,-0.7001,-0.7,-0.6998,-0.6941,-0.694,-0.6939,-0.6938,-0.6864,-0.6862,-0.686,-0.6865,0,0,-0.6853,-0.6852,0,0,0,0,0,0,0,0,-0.7109,-0.7103,-0.704,-0.7036,-0.7031,-0.6979,-0.7002,-0.6953,-0.6941,-0.6974,-0.6939,-0.6938,-0.6902,-0.6897,-0.6885,-0.6861,-0.6858,-0.6853,-0.6852,-0.6851,-0.685,0,0,0,0,0,0,0,-0.7113,-0.7106,-0.7044,-0.7039,-0.7034,-0.7018,-0.701,-0.6992,-0.6944,-0.6971,-0.6967,-0.6959,-0.6899,-0.6887,-0.6883,-0.6857,-0.6853,-0.6851,-0.685,-0.6849,-0.6831,-0.6832,0,0,0,0,0,0,-0.7123,-0.7109,-0.7046,-0.7042,-0.7069,-0.7018,-0.7008,-0.6996,-0.6944,-0.6935,-0.696,-0.6957,-0.6892,-0.6886,-0.688,-0.6881,-0.6851,-0.6849,-0.6848,-0.683,-0.6831,-0.6832,0,0,0,0,0,0,-0.7125,-0.7118,-0.7049,-0.7074,-0.7064,-0.7017,-0.7004,-0.6995,-0.6983,-0.6936,-0.6926,-0.6957,-0.6891,-0.6883,-0.6869,-0.6878,-0.6848,-0.6846,-0.6829,-0.683,-0.6832,-0.6884,0,0,0,0,0,0,-0.7127,-0.7119,-0.7121,-0.7075,-0.7063,-0.704,-0.7005,-0.6995,-0.698,-0.6975,-0.693,-0.6922,-0.6889,-0.6872,-0.6866,-0.6874,-0.6844,-0.6828,-0.683,-0.6831,-0.6881,-0.6887,-0.6892,0,0,0,0,0,-0.7131,-0.7138,-0.7121,-0.7114,-0.7065,-0.7041,-0.7034,-0.6997,-0.6981,-0.6982,-0.6951,-0.6923,-0.6878,-0.6871,-0.6864,-0.6872,-0.6827,-0.6829,-0.6831,-0.6879,-0.6886,-0.6892,0,0,0,0,0,0,-0.7186,-0.7132,-0.7112,-0.7105,-0.7078,-0.7031,-0.7031,-0.7006,-0.6982,-0.6978,-0.6933,-0.6923,-0.6913,-0.6891,-0.6884,-0.6872,-0.6849,-0.6849,-0.6888,-0.6894,-0.6899,-0.6905,-0.6842,0,0,0,0,0,-0.7198,-0.7183,-0.7136,-0.7135,-0.7122,-0.7079,-0.7067,-0.7041,-0.7011,-0.6999,-0.6967,-0.6938,-0.6917,-0.6904,-0.6882,-0.6878,-0.6866,-0.6879,-0.6885,-0.6889,-0.689,-0.6885,-0.689,-0.6838,-0.6838,-0.6838,0,0,-0.7221,-0.719,-0.7183,-0.7145,-0.7121,-0.7106,-0.707,-0.7056,-0.7044,-0.6996,-0.6981,-0.6956,-0.6921,-0.6911,-0.6905,-0.6892,-0.6902,-0.6891,-0.6895,-0.6894,-0.6887,-0.6892,-0.6896,-0.6839,-0.6839,-0.6839,0,0,-0.7257,-0.7232,-0.7227,-0.7204,-0.7168,-0.7139,-0.7138,-0.7094,-0.7076,-0.706,-0.7024,-0.7008,-0.6973,-0.6949,-0.6933,-0.6958,-0.6931,-0.6952,-0.6979,-0.6975,-0.6979,-0.6982,-0.699,-0.6994,-0.6953,-0.6953,-0.6953,0,-0.729,-0.7267,-0.7228,-0.7216,-0.72,-0.7156,-0.7151,-0.713,-0.7088,-0.7077,-0.7063,-0.7018,-0.6991,-0.6975,-0.6981,-0.6969,-0.6965,-0.6957,-0.6981,-0.6984,-0.6987,-0.6994,-0.6997,-0.6956,-0.6955,-0.6955,-0.6955,0,-0.731,-0.7294,-0.7295,-0.7256,-0.724,-0.7232,-0.719,-0.7178,-0.7153,-0.7126,-0.7109,-0.7075,-0.7045,-0.7039,-0.7014,-0.7019,-0.7011,-0.699,-0.6965,-0.6995,-0.7001,-0.7004,-0.696,-0.6959,-0.6958,-0.6957,0,0,-0.7379,-0.7318,-0.7319,-0.73,-0.7257,-0.7244,-0.7233,-0.7204,-0.7194,-0.7166,-0.7155,-0.7126,-0.7106,-0.7087,-0.7059,-0.7055,-0.7076,-0.7034,-0.7032,-0.7042,-0.7077,-0.7093,-0.7097,-0.7058,-0.7058,-0.7058,-0.708,0,-0.7407,-0.7385,-0.7349,-0.7339,-0.7323,-0.7281,-0.7271,-0.7243,-0.7216,-0.7198,-0.7169,-0.7149,-0.7124,-0.7112,-0.7106,-0.7075,-0.7082,-0.7073,-0.7046,-0.7045,-0.7056,-0.71,-0.7118,-0.714,-0.7082,-0.7083,-0.7083,0,-0.7437,-0.7412,-0.74,-0.7357,-0.7349,-0.7341,-0.7311,-0.7295,-0.7261,-0.7242,-0.7221,-0.719,-0.7175,-0.7153,-0.713,-0.7125,-0.7111,-0.7094,-0.7094,-0.709,-0.7066,-0.7097,-0.7146,-0.7149,-0.7086,-0.7086,-0.7086,0,-0.7487,-0.7451,-0.7439,-0.7424,-0.7374,-0.7369,-0.7347,-0.7313,-0.7298,-0.7271,-0.726,-0.7232,-0.7217,-0.7195,-0.7158,-0.7145,-0.7139,-0.7114,-0.7122,-0.7123,-0.7122,-0.7123,-0.7169,-0.7115,-0.7115,-0.7115,-0.7115,0,-0.7522,-0.7516,-0.7461,-0.7453,-0.7445,-0.7403,-0.7396,-0.737,-0.734,-0.7326,-0.7288,-0.7275,-0.7226,-0.7208,-0.7178,-0.7164,-0.7157,-0.714,-0.7133,-0.7144,-0.7146,-0.7134,-0.7131,-0.7116,-0.7115,-0.7115,-0.7115,0,-0.7577,-0.754,-0.7524,-0.7477,-0.7465,-0.7461,-0.742,-0.7411,-0.7382,-0.7365,-0.7359,-0.7313,-0.7289,-0.7249,-0.7214,-0.7194,-0.7184,-0.7172,-0.7196,-0.7191,-0.7201,-0.7201,-0.7241,-0.7244,-0.7189,-0.719,-0.719,0,-0.7601,-0.7596,-0.7549,-0.7537,-0.7517,-0.7498,-0.7482,-0.744,-0.7425,-0.7386,-0.7381,-0.7354,-0.7331,-0.7294,-0.7257,-0.723,-0.7215,-0.7232,-0.7211,-0.7222,-0.7214,-0.7215,-0.7214,-0.7236,-0.7237,-0.7238,-0.7238,0,-0.7648,-0.763,-0.7609,-0.7581,-0.7563,-0.7539,-0.7513,-0.7505,-0.7457,-0.7442,-0.7417,-0.7399,-0.7362,-0.7336,-0.7303,-0.7279,-0.725,-0.7245,-0.7245,-0.7256,-0.727,-0.7262,-0.7208,-0.7244,-0.7244,-0.7243,-0.7243,-0.7243,-0.7688,-0.7681,-0.7646,-0.7623,-0.7599,-0.7576,-0.7564,-0.7534,-0.7513,-0.7481,-0.7457,-0.7434,-0.7399,-0.7352,-0.733,-0.731,-0.7297,-0.7298,-0.7298,-0.7298,-0.7302,-0.7274,-0.7304,-0.7304,-0.7304,-0.7303,-0.7303,0,-0.7732,-0.7707,-0.7687,-0.7652,-0.7634,-0.7609,-0.7578,-0.7565,-0.7545,-0.7515,-0.7493,-0.7464,-0.7438,-0.7399,-0.7369,-0.7361,-0.7347,-0.7355,-0.7354,-0.7349,-0.7316,-0.7318,-0.7366,-0.7366,-0.7366,-0.7366,-0.7366,-0.7366,-0.7753,-0.7739,-0.7716,-0.769,-0.7665,-0.7642,-0.7627,-0.7605,-0.7581,-0.755,-0.7529,-0.7504,-0.747,-0.7437,-0.7412,-0.7401,-0.7391,-0.7403,-0.7388,-0.7358,-0.7352,-0.7346,-0.7348,-0.7402,-0.7402,-0.7422,-0.7423,-0.7423]}]]